Powrót do katalogu

COSMOS 2159

AktywnyNawigacjaPO
NORAD 21730·PAYLOAD·🇷🇺 Russia

Wystrzelony Sep 28, 1991 z Plesetsk Cosmodrome

Loading…

Następne Przeloty (najbliższe 24 godziny)

TLE

ŚwieżeSource: Space-Track

Epoka: Sep 14, 2026, 08:18 UTC

1 21730U 91068C   26257.34612501  .00000005  00000-0 -32039-4 0  9998
2 21730  82.5817 223.0824 0015042  74.2480  92.8406 12.66048676615517

Śledź COSMOS 2159 w czasie rzeczywistym z AllMySat

Download on the App Store